Location: Kirkland Lake
(48.1510°N, 80.0330°W)
Time: 08:49:08
(UTC-04:00)

ISS - Pass Details

Date: 25 April 2026
Orbit: 414 x 424 km, 51.6° (Epoch: 18 May)

Event Time Altitude Azimuth Distance (km) Brightness Sun altitude
Exits shadow 03:23:47 21° 105° (ESE) 1,003 -1.7 -22.6°
Drops below altitude 10° 03:25:24 10° 83° (E) 1,501 -0.4 -22.4°
Sets 03:27:41 0° 71° (ENE) 2,371 0.9 -22.2°
